Flag for Vanuatu Weather past 2 weeks in Port Vila, Vanuatu

Now
72 °F

Passing clouds.


Feels Like: 71 °F
Forecast: 74 / 79 °F
Wind: 2 mph from North

Location: Bauerfield Efate

Current Time: May 27, 2015 at 7:27:56 PM

Latest Report: May 27, 2015 at 7:00 PM


Visibility: N/A

Pressure: 30.04 "Hg

Humidity: 83%

Dew point: 66 °F

Location of Port VilaLocation

Historic Weather in Port Vila — Graph

°F

Port Vila temperature yesterday

Maximum temperature yesterday: 79 °F (at 1:00 PM)
Minimum temperature yesterday: 68 °F (at 2:00 AM)
Average temperature yesterday: 73 °F

Past Weeks' High & Low Weather Summary

 TemperatureHumidityPressure
High84 °F (May 14, 11:00 AM)100% (May 14, 3:00 AM)30.12 "Hg (May 14, 3:00 AM)
Low64 °F (May 19, 5:00 AM)55% (May 13, 1:00 PM)29.83 "Hg (May 17, 12:00 PM)
Average74 °F82%29.99 "Hg
* Reported May 12 6:00 PM — May 27 6:00 PM, Port Vila, Weather by CustomWeather, © 2015

Note: Actual official high and low records may vary slightly from our data, if they occured in-between our weather recording intervals... More about our weather records

Advertising

Port Vila weather history for previous 24 hours

 ConditionsComfort  
Time TempWeatherWind HumidityBarometerVisibility
6:00 PM
Wed, May 27
73 °FPartly cloudy.6 mph78%30.01 "HgN/A
5:00 PM75 °FPartly sunny.7 mph74%29.98 "HgN/A
4:00 PM77 °FPartly sunny.12 mph69%29.98 "HgN/A
2:00 PM79 °FPartly sunny.12 mph65%29.98 "HgN/A
1:00 PM79 °FPartly sunny.10 mph65%29.98 "HgN/A
12:00 PM79 °FPartly sunny.14 mph61%30.01 "HgN/A
11:00 AM79 °FPartly sunny.12 mph65%30.04 "HgN/A
10:00 AM77 °FPartly sunny.15 mph69%30.04 "HgN/A
9:00 AM77 °FScattered clouds.13 mph74%30.04 "HgN/A
8:00 AM73 °FPartly sunny.2 mph83%30.04 "HgN/A
7:00 AM70 °FPartly sunny.2 mph88%30.04 "HgN/A
6:00 AM70 °FPartly cloudy.2 mph88%30.01 "HgN/A
5:00 AM68 °FPartly cloudy.2 mph88%30.01 "HgN/A
4:00 AM68 °FPartly cloudy.3 mph88%30.01 "HgN/A
3:00 AM68 °FPartly cloudy.3 mph88%30.01 "HgN/A
2:00 AM70 °FPartly cloudy.3 mph83%30.01 "HgN/A
1:00 AM70 °FOvercast.10 mph94%30.04 "HgN/A
12:00 AM72 °FOvercast.6 mph88%30.04 "HgN/A
9:00 PM
Tue, May 26
70 °FPartly cloudy.1 mph88%30.07 "HgN/A
8:00 PM70 °FPartly cloudy.2 mph94%30.07 "HgN/A
7:00 PM72 °FPassing clouds.6 mph83%30.07 "HgN/A
Weather by CustomWeather, © 2015

See weather overviewHow to use our weather pages